Time,TemperatureF,DewpointF,PressureIn,WindDirection,WindDirectionDegrees,WindSpeedMPH,WindSpeedGustMPH,Humidity,HourlyPrecipIn,Conditions,Clouds,dailyrainin,SoftwareType,DateUTC
2013-02-25 00:01:00,31.3,9.1,30.01,NE,34,6.0,10.0,39,0.00,,,0.04,meteohub,2013-02-25 06:01:00,
2013-02-25 00:06:00,31.1,9.7,30.01,NE,36,6.0,10.0,40,0.00,,,0.00,meteohub,2013-02-25 06:06:00,
2013-02-25 00:11:00,31.1,9.7,30.01,NNE,15,4.0,10.0,40,0.00,,,0.00,meteohub,2013-02-25 06:11:00,
2013-02-25 00:16:00,31.1,9.7,30.04,NE,45,5.0,8.0,40,0.00,,,0.00,meteohub,2013-02-25 06:16:00,
2013-02-25 00:22:00,30.9,9.5,30.04,NNE,28,8.0,8.0,40,0.00,,,0.00,meteohub,2013-02-25 06:22:00,
2013-02-25 00:27:00,30.9,9.5,30.04,NNE,28,3.0,10.0,40,0.00,,,0.00,meteohub,2013-02-25 06:27:00,
2013-02-25 00:32:00,30.7,9.3,30.04,NNE,19,4.0,12.0,40,0.00,,,0.00,meteohub,2013-02-25 06:32:00,
2013-02-25 00:37:00,30.7,9.3,30.04,North,6,4.0,12.0,40,0.00,,,0.00,meteohub,2013-02-25 06:37:00,
2013-02-25 00:42:00,30.7,9.3,30.04,NNE,24,5.0,12.0,40,0.00,,,0.00,meteohub,2013-02-25 06:42:00,
2013-02-25 00:47:00,30.7,9.3,30.04,North,3,8.0,9.0,40,0.00,,,0.00,meteohub,2013-02-25 06:47:00,
2013-02-25 00:52:00,30.6,9.1,30.04,North,353,6.0,9.0,40,0.00,,,0.00,meteohub,2013-02-25 06:52:00,
2013-02-25 00:57:00,30.6,9.1,30.04,NNE,29,4.0,9.0,40,0.00,,,0.00,meteohub,2013-02-25 06:57:00,
2013-02-25 01:02:00,30.6,9.1,30.04,North,350,5.0,8.0,40,0.00,,,0.00,meteohub,2013-02-25 07:02:00,
2013-02-25 01:07:00,30.4,9.0,30.04,NNE,23,4.0,8.0,40,0.00,,,0.00,meteohub,2013-02-25 07:07:00,
2013-02-25 01:12:00,30.4,9.0,30.04,NNE,28,3.0,8.0,40,0.00,,,0.00,meteohub,2013-02-25 07:12:00,
2013-02-25 01:17:00,30.4,9.0,30.04,North,8,4.0,8.0,40,0.00,,,0.00,meteohub,2013-02-25 07:17:00,
2013-02-25 01:22:00,30.2,8.8,30.04,North,9,5.0,8.0,40,0.00,,,0.00,meteohub,2013-02-25 07:22:00,
2013-02-25 01:27:00,30.2,9.3,30.04,NNE,15,2.0,7.0,41,0.00,,,0.00,meteohub,2013-02-25 07:27:00,
2013-02-25 01:32:00,30.2,8.8,30.04,NE,35,4.0,6.0,40,0.00,,,0.00,meteohub,2013-02-25 07:32:00,
2013-02-25 01:37:00,30.2,8.8,30.04,NNE,25,4.0,6.0,40,0.00,,,0.00,meteohub,2013-02-25 07:37:00,
2013-02-25 01:42:00,30.0,8.6,30.04,NNE,29,3.0,6.0,40,0.00,,,0.00,meteohub,2013-02-25 07:42:00,
2013-02-25 01:47:00,29.8,8.4,30.04,NNE,28,6.0,8.0,40,0.00,,,0.00,meteohub,2013-02-25 07:47:00,
2013-02-25 01:52:00,29.8,8.4,30.04,NNE,13,5.0,8.0,40,0.00,,,0.00,meteohub,2013-02-25 07:52:00,
2013-02-25 01:57:00,29.7,8.8,30.04,North,7,4.0,8.0,41,0.00,,,0.00,meteohub,2013-02-25 07:57:00,
2013-02-25 02:02:00,29.7,8.8,30.04,North,10,4.0,8.0,41,0.00,,,0.00,meteohub,2013-02-25 08:02:00,
2013-02-25 02:07:00,29.7,8.8,30.04,North,9,5.0,7.0,41,0.00,,,0.00,meteohub,2013-02-25 08:07:00,
2013-02-25 02:12:00,29.5,8.6,30.04,NNE,27,4.0,7.0,41,0.00,,,0.00,meteohub,2013-02-25 08:12:00,
2013-02-25 02:17:00,29.5,8.6,30.04,NNE,15,6.0,8.0,41,0.00,,,0.00,meteohub,2013-02-25 08:17:00,
2013-02-25 02:22:00,29.5,8.6,30.04,NNE,19,5.0,8.0,41,0.00,,,0.00,meteohub,2013-02-25 08:22:00,
2013-02-25 02:27:00,29.5,8.6,30.04,NNE,30,3.0,8.0,41,0.00,,,0.00,meteohub,2013-02-25 08:27:00,
2013-02-25 02:32:00,29.5,8.6,30.01,NNE,20,3.0,6.0,41,0.00,,,0.00,meteohub,2013-02-25 08:32:00,
2013-02-25 02:37:00,29.5,8.6,30.01,NE,49,4.0,6.0,41,0.00,,,0.00,meteohub,2013-02-25 08:37:00,
2013-02-25 02:42:00,29.3,8.6,30.01,ENE,58,4.0,5.0,41,0.00,,,0.00,meteohub,2013-02-25 08:42:00,
2013-02-25 02:47:00,29.3,8.6,30.04,NE,52,0.0,6.0,41,0.00,,,0.00,meteohub,2013-02-25 08:47:00,
2013-02-25 02:52:00,29.3,8.6,30.04,ENE,60,3.0,6.0,41,0.00,,,0.00,meteohub,2013-02-25 08:52:00,
2013-02-25 02:57:00,29.3,8.6,30.04,NE,54,3.0,6.0,41,0.00,,,0.00,meteohub,2013-02-25 08:57:00,
2013-02-25 03:02:00,29.3,8.6,30.04,ENE,59,0.0,6.0,41,0.00,,,0.00,meteohub,2013-02-25 09:02:00,
2013-02-25 03:07:00,29.3,8.6,30.04,NE,55,3.0,6.0,41,0.00,,,0.00,meteohub,2013-02-25 09:07:00,
2013-02-25 03:12:00,29.1,8.4,30.04,NE,52,3.0,5.0,41,0.00,,,0.00,meteohub,2013-02-25 09:12:00,
2013-02-25 03:17:00,29.1,8.4,30.04,NE,51,3.0,6.0,41,0.00,,,0.00,meteohub,2013-02-25 09:17:00,
2013-02-25 03:22:00,29.1,8.4,30.04,NNE,24,3.0,6.0,41,0.00,,,0.00,meteohub,2013-02-25 09:22:00,
2013-02-25 03:27:00,28.9,8.2,30.04,NE,45,3.0,6.0,41,0.00,,,0.00,meteohub,2013-02-25 09:27:00,
2013-02-25 03:32:00,28.9,8.2,30.04,North,5,5.0,6.0,41,0.00,,,0.00,meteohub,2013-02-25 09:32:00,
2013-02-25 03:37:00,28.9,8.2,30.04,NE,37,0.0,6.0,41,0.00,,,0.00,meteohub,2013-02-25 09:37:00,
2013-02-25 03:42:00,28.9,8.2,30.04,NNE,20,4.0,6.0,41,0.00,,,0.00,meteohub,2013-02-25 09:42:00,
2013-02-25 03:47:00,28.9,8.2,30.01,North,8,4.0,6.0,41,0.00,,,0.00,meteohub,2013-02-25 09:47:00,
2013-02-25 03:52:00,28.9,8.2,30.01,NE,43,4.0,6.0,41,0.00,,,0.00,meteohub,2013-02-25 09:52:00,
2013-02-25 03:57:00,28.8,8.1,30.01,North,2,5.0,8.0,41,0.00,,,0.00,meteohub,2013-02-25 09:57:00,
2013-02-25 04:02:00,28.8,8.1,30.01,NNE,28,4.0,8.0,41,0.00,,,0.00,meteohub,2013-02-25 10:02:00,
2013-02-25 04:07:00,28.8,8.1,30.01,North,357,6.0,8.0,41,0.00,,,0.00,meteohub,2013-02-25 10:07:00,
2013-02-25 04:12:00,28.8,8.1,30.01,NNE,26,6.0,8.0,41,0.00,,,0.00,meteohub,2013-02-25 10:12:00,
2013-02-25 04:17:00,28.8,8.1,30.01,NNE,30,3.0,8.0,41,0.00,,,0.00,meteohub,2013-02-25 10:17:00,
2013-02-25 04:22:00,28.8,8.1,30.01,NNE,16,6.0,8.0,41,0.00,,,0.00,meteohub,2013-02-25 10:22:00,
2013-02-25 04:27:00,28.6,7.9,30.01,NE,42,6.0,6.0,41,0.00,,,0.00,meteohub,2013-02-25 10:27:00,
2013-02-25 04:32:00,28.6,7.9,30.01,NNE,23,3.0,6.0,41,0.00,,,0.00,meteohub,2013-02-25 10:32:00,
2013-02-25 04:37:00,28.6,7.9,30.01,North,357,5.0,6.0,41,0.00,,,0.00,meteohub,2013-02-25 10:37:00,
2013-02-25 04:42:00,28.6,7.9,30.01,NNE,19,4.0,8.0,41,0.00,,,0.00,meteohub,2013-02-25 10:42:00,
2013-02-25 04:47:00,28.6,7.9,30.04,North,8,4.0,8.0,41,0.00,,,0.00,meteohub,2013-02-25 10:47:00,
2013-02-25 04:52:00,28.6,7.9,30.04,NNE,28,3.0,8.0,41,0.00,,,0.00,meteohub,2013-02-25 10:52:00,
2013-02-25 04:57:00,28.4,8.2,30.04,North,2,5.0,8.0,42,0.00,,,0.00,meteohub,2013-02-25 10:57:00,
2013-02-25 05:02:00,28.4,8.2,30.04,NE,35,3.0,8.0,42,0.00,,,0.00,meteohub,2013-02-25 11:02:00,
2013-02-25 05:07:00,28.4,8.2,30.04,NE,38,4.0,6.0,42,0.00,,,0.00,meteohub,2013-02-25 11:07:00,
2013-02-25 05:12:00,28.2,8.1,30.04,NNE,14,4.0,6.0,42,0.00,,,0.00,meteohub,2013-02-25 11:12:00,
2013-02-25 05:17:00,28.2,8.1,30.04,North,11,3.0,6.0,42,0.00,,,0.00,meteohub,2013-02-25 11:17:00,
2013-02-25 05:22:00,28.2,8.1,30.04,North,6,5.0,6.0,42,0.00,,,0.00,meteohub,2013-02-25 11:22:00,
2013-02-25 05:27:00,28.2,8.1,30.04,NNE,22,3.0,6.0,42,0.00,,,0.00,meteohub,2013-02-25 11:27:00,
2013-02-25 05:32:00,28.2,8.1,30.04,NE,43,4.0,6.0,42,0.00,,,0.00,meteohub,2013-02-25 11:32:00,
2013-02-25 05:37:00,28.2,8.1,30.04,North,10,4.0,6.0,42,0.00,,,0.00,meteohub,2013-02-25 11:37:00,
2013-02-25 05:42:00,28.2,8.1,30.04,NNE,22,3.0,5.0,42,0.00,,,0.00,meteohub,2013-02-25 11:42:00,
2013-02-25 05:47:00,28.2,8.1,30.04,NNE,27,4.0,5.0,42,0.00,,,0.00,meteohub,2013-02-25 11:47:00,
2013-02-25 05:52:00,28.0,7.9,30.04,ENE,62,4.0,6.0,42,0.00,,,0.00,meteohub,2013-02-25 11:52:00,
2013-02-25 05:57:00,28.0,7.9,30.04,NE,43,3.0,6.0,42,0.00,,,0.00,meteohub,2013-02-25 11:57:00,
2013-02-25 06:02:00,28.0,7.9,30.01,North,0,6.0,6.0,42,0.00,,,0.00,meteohub,2013-02-25 12:02:00,
2013-02-25 06:07:00,28.0,7.9,30.01,NNW,346,8.0,11.0,42,0.00,,,0.00,meteohub,2013-02-25 12:07:00,
2013-02-25 06:12:00,27.9,7.7,30.01,NNE,18,4.0,11.0,42,0.00,,,0.00,meteohub,2013-02-25 12:12:00,
2013-02-25 06:17:00,27.9,7.7,30.01,North,357,5.0,11.0,42,0.00,,,0.00,meteohub,2013-02-25 12:17:00,
2013-02-25 06:22:00,27.9,7.7,30.01,North,10,7.0,8.0,42,0.00,,,0.00,meteohub,2013-02-25 12:22:00,
2013-02-25 06:27:00,27.9,7.7,30.01,NE,38,6.0,8.0,42,0.00,,,0.00,meteohub,2013-02-25 12:27:00,
2013-02-25 06:32:00,27.9,7.7,30.01,NNE,20,4.0,7.0,42,0.00,,,0.00,meteohub,2013-02-25 12:32:00,
2013-02-25 06:37:00,27.9,7.7,30.01,NNE,19,3.0,7.0,42,0.00,,,0.00,meteohub,2013-02-25 12:37:00,
2013-02-25 06:42:00,27.7,7.5,30.01,NE,38,4.0,9.0,42,0.00,,,0.00,meteohub,2013-02-25 12:42:00,
2013-02-25 06:47:00,27.7,7.5,30.01,NE,51,4.0,9.0,42,0.00,,,0.00,meteohub,2013-02-25 12:47:00,
2013-02-25 06:52:00,27.7,7.5,30.01,NE,49,4.0,9.0,42,0.00,,,0.00,meteohub,2013-02-25 12:52:00,
2013-02-25 06:57:00,27.7,7.5,30.01,NE,37,5.0,8.0,42,0.00,,,0.00,meteohub,2013-02-25 12:57:00,
2013-02-25 07:02:00,27.5,6.8,30.01,NNE,27,8.0,8.0,41,0.00,,,0.00,meteohub,2013-02-25 13:02:00,
2013-02-25 07:08:00,27.5,6.8,30.01,North,357,4.0,8.0,41,0.00,,,0.00,meteohub,2013-02-25 13:08:00,
2013-02-25 07:13:00,27.5,6.8,30.01,NNE,13,8.0,8.0,41,0.00,,,0.00,meteohub,2013-02-25 13:13:00,
2013-02-25 07:18:00,27.5,6.8,30.04,North,9,6.0,8.0,41,0.00,,,0.00,meteohub,2013-02-25 13:18:00,
2013-02-25 07:23:00,27.5,6.8,30.04,NE,50,4.0,8.0,41,0.00,,,0.00,meteohub,2013-02-25 13:23:00,
2013-02-25 07:28:00,27.5,6.8,30.04,ENE,63,5.0,8.0,41,0.00,,,0.00,meteohub,2013-02-25 13:28:00,
2013-02-25 07:33:00,27.3,6.8,30.04,NNE,26,8.0,8.0,41,0.00,,,0.00,meteohub,2013-02-25 13:33:00,
2013-02-25 07:38:00,27.3,6.8,30.04,NNE,16,4.0,8.0,41,0.00,,,0.00,meteohub,2013-02-25 13:38:00,
2013-02-25 07:44:00,27.3,6.8,30.04,ENE,63,6.0,8.0,41,0.00,,,0.00,meteohub,2013-02-25 13:44:00,
2013-02-25 07:49:00,27.5,6.8,30.04,NNE,22,4.0,8.0,41,0.00,,,0.00,meteohub,2013-02-25 13:49:00,
2013-02-25 07:54:00,27.5,6.8,30.04,ENE,64,0.0,8.0,41,0.00,,,0.00,meteohub,2013-02-25 13:54:00,
2013-02-25 07:59:00,27.7,7.0,30.04,NNE,13,0.0,8.0,41,0.00,,,0.00,meteohub,2013-02-25 13:59:00,
2013-02-25 08:04:00,27.7,7.0,30.04,NNE,21,5.0,8.0,41,0.00,,,0.00,meteohub,2013-02-25 14:04:00,
2013-02-25 08:10:00,27.9,7.2,30.04,NE,46,3.0,8.0,41,0.00,,,0.00,meteohub,2013-02-25 14:10:00,
2013-02-25 08:15:00,27.9,7.2,30.04,NNE,19,5.0,6.0,41,0.00,,,0.00,meteohub,2013-02-25 14:15:00,
2013-02-25 08:20:00,27.9,7.2,30.04,North,8,6.0,8.0,41,0.00,,,0.00,meteohub,2013-02-25 14:20:00,
2013-02-25 08:25:00,28.0,7.3,30.04,NNE,15,6.0,8.0,41,0.00,,,0.00,meteohub,2013-02-25 14:25:00,
2013-02-25 08:30:00,28.2,7.5,30.04,NNE,25,4.0,8.0,41,0.00,,,0.00,meteohub,2013-02-25 14:30:00,
2013-02-25 08:35:00,28.2,7.5,30.04,NNE,30,4.0,8.0,41,0.00,,,0.00,meteohub,2013-02-25 14:35:00,
2013-02-25 08:41:00,28.4,7.2,30.04,NNE,17,5.0,8.0,40,0.00,,,0.00,meteohub,2013-02-25 14:41:00,
2013-02-25 08:46:00,28.4,7.2,30.04,North,4,5.0,8.0,40,0.00,,,0.00,meteohub,2013-02-25 14:46:00,
2013-02-25 08:51:00,28.6,6.8,30.04,NE,41,4.0,8.0,39,0.00,,,0.00,meteohub,2013-02-25 14:51:00,
2013-02-25 08:56:00,28.8,7.0,30.04,North,1,5.0,8.0,39,0.00,,,0.00,meteohub,2013-02-25 14:56:00,
2013-02-25 09:01:00,28.9,6.4,30.04,NNE,31,4.0,6.0,38,0.00,,,0.00,meteohub,2013-02-25 15:01:00,
2013-02-25 09:06:00,29.3,6.8,30.04,NNE,19,4.0,7.0,38,0.00,,,0.00,meteohub,2013-02-25 15:06:00,
2013-02-25 09:11:00,29.5,7.0,30.04,NE,38,0.0,7.0,38,0.00,,,0.00,meteohub,2013-02-25 15:11:00,
2013-02-25 09:16:00,29.8,6.8,30.04,NNE,23,4.0,8.0,37,0.00,,,0.00,meteohub,2013-02-25 15:16:00,
2013-02-25 09:21:00,30.0,7.0,30.04,North,0,8.0,8.0,37,0.00,,,0.00,meteohub,2013-02-25 15:21:00,
2013-02-25 09:26:00,30.2,5.9,30.04,NNE,15,8.0,10.0,35,0.00,,,0.00,meteohub,2013-02-25 15:26:00,
2013-02-25 09:31:00,30.4,4.6,30.04,NE,38,8.0,10.0,33,0.00,,,0.00,meteohub,2013-02-25 15:31:00,
2013-02-25 09:37:00,30.6,4.3,30.04,NNE,18,6.0,10.0,32,0.00,,,0.00,meteohub,2013-02-25 15:37:00,
2013-02-25 09:42:00,30.7,3.7,30.04,NE,38,6.0,10.0,31,0.00,,,0.00,meteohub,2013-02-25 15:42:00,
2013-02-25 09:47:00,31.1,3.9,30.04,NNE,19,4.0,10.0,31,0.00,,,0.00,meteohub,2013-02-25 15:47:00,
2013-02-25 09:52:00,31.6,4.5,30.04,ENE,57,5.0,9.0,31,0.00,,,0.00,meteohub,2013-02-25 15:52:00,
2013-02-25 09:57:00,31.8,4.6,30.04,NE,49,4.0,8.0,31,0.00,,,0.00,meteohub,2013-02-25 15:57:00,
2013-02-25 10:02:00,31.8,4.6,30.04,NE,43,3.0,8.0,31,0.00,,,0.00,meteohub,2013-02-25 16:02:00,
2013-02-25 10:07:00,32.0,4.8,30.04,NNE,16,5.0,8.0,31,0.00,,,0.00,meteohub,2013-02-25 16:07:00,
2013-02-25 10:12:00,32.4,5.0,30.04,NNE,26,4.0,8.0,31,0.00,,,0.00,meteohub,2013-02-25 16:12:00,
2013-02-25 10:17:00,32.5,4.5,30.04,NNE,17,4.0,9.0,30,0.00,,,0.00,meteohub,2013-02-25 16:17:00,
2013-02-25 10:22:00,33.1,5.7,30.04,NNW,345,6.0,9.0,31,0.00,,,0.00,meteohub,2013-02-25 16:22:00,
2013-02-25 10:27:00,33.3,5.2,30.04,NNE,14,6.0,9.0,30,0.00,,,0.00,meteohub,2013-02-25 16:27:00,
2013-02-25 10:32:00,33.4,5.4,30.04,NNE,12,5.0,11.0,30,0.00,,,0.00,meteohub,2013-02-25 16:32:00,
2013-02-25 10:38:00,33.6,5.5,30.04,NNE,24,13.0,13.0,30,0.00,,,0.00,meteohub,2013-02-25 16:38:00,
2013-02-25 10:43:00,33.6,3.9,30.04,North,5,8.0,13.0,28,0.00,,,0.00,meteohub,2013-02-25 16:43:00,
2013-02-25 10:48:00,33.3,3.7,30.01,NNE,24,8.0,13.0,28,0.00,,,0.00,meteohub,2013-02-25 16:48:00,
2013-02-25 10:53:00,33.3,3.7,30.01,North,350,8.0,13.0,28,0.00,,,0.00,meteohub,2013-02-25 16:53:00,
2013-02-25 10:58:00,33.4,3.7,30.01,NE,44,8.0,13.0,28,0.00,,,0.00,meteohub,2013-02-25 16:58:00,
2013-02-25 11:03:00,33.3,3.7,30.04,NNE,28,3.0,11.0,28,0.00,,,0.00,meteohub,2013-02-25 17:03:00,
2013-02-25 11:08:00,33.4,3.7,30.04,NNE,28,6.0,11.0,28,0.00,,,0.00,meteohub,2013-02-25 17:08:00,
2013-02-25 11:13:00,33.4,3.7,30.04,ENE,59,11.0,13.0,28,0.00,,,0.00,meteohub,2013-02-25 17:13:00,
2013-02-25 11:18:00,33.4,3.7,30.04,NE,46,8.0,13.0,28,0.00,,,0.00,meteohub,2013-02-25 17:18:00,
2013-02-25 11:23:00,33.6,3.9,30.04,NE,42,3.0,13.0,28,0.00,,,0.00,meteohub,2013-02-25 17:23:00,
2013-02-25 11:28:00,33.8,3.4,30.04,NNE,27,6.0,13.0,27,0.00,,,0.00,meteohub,2013-02-25 17:28:00,
2013-02-25 11:34:00,34.3,3.7,30.01,NNE,23,4.0,9.0,27,0.00,,,0.00,meteohub,2013-02-25 17:34:00,
2013-02-25 11:39:00,34.5,3.9,30.01,NNE,12,6.0,9.0,27,0.00,,,0.00,meteohub,2013-02-25 17:39:00,
2013-02-25 11:44:00,34.5,3.9,30.01,NNE,24,10.0,10.0,27,0.00,,,0.00,meteohub,2013-02-25 17:44:00,
2013-02-25 11:49:00,34.5,2.3,30.01,NE,36,4.0,11.0,25,0.00,,,0.00,meteohub,2013-02-25 17:49:00,
2013-02-25 11:54:00,34.5,2.3,30.01,North,6,8.0,11.0,25,0.00,,,0.00,meteohub,2013-02-25 17:54:00,
2013-02-25 11:59:00,34.7,2.5,30.01,NNE,25,8.0,13.0,25,0.00,,,0.00,meteohub,2013-02-25 17:59:00,
2013-02-25 12:04:00,34.9,4.3,30.01,NNE,25,8.0,13.0,27,0.00,,,0.00,meteohub,2013-02-25 18:04:00,
2013-02-25 12:09:00,34.9,4.3,30.01,NE,39,6.0,13.0,27,0.00,,,0.00,meteohub,2013-02-25 18:09:00,
2013-02-25 12:14:00,34.9,4.3,30.01,NNE,32,11.0,12.0,27,0.00,,,0.00,meteohub,2013-02-25 18:14:00,
2013-02-25 12:19:00,34.9,4.3,30.01,NNE,15,5.0,12.0,27,0.00,,,0.00,meteohub,2013-02-25 18:19:00,
2013-02-25 12:24:00,35.1,4.5,30.01,North,0,11.0,12.0,27,0.00,,,0.00,meteohub,2013-02-25 18:24:00,
2013-02-25 12:30:00,35.1,4.5,30.01,NNE,19,6.0,11.0,27,0.00,,,0.00,meteohub,2013-02-25 18:30:00,
2013-02-25 12:35:00,35.2,4.6,29.98,NE,39,8.0,14.0,27,0.00,,,0.00,meteohub,2013-02-25 18:35:00,
2013-02-25 12:40:00,34.9,4.3,29.98,NE,55,8.0,17.0,27,0.00,,,0.00,meteohub,2013-02-25 18:40:00,
2013-02-25 12:45:00,34.7,4.1,29.98,NE,36,8.0,17.0,27,0.00,,,0.00,meteohub,2013-02-25 18:45:00,
2013-02-25 12:50:00,34.9,4.3,29.98,NNE,18,5.0,17.0,27,0.00,,,0.00,meteohub,2013-02-25 18:50:00,
2013-02-25 12:55:00,35.1,4.5,29.98,NE,52,11.0,15.0,27,0.00,,,0.00,meteohub,2013-02-25 18:55:00,
2013-02-25 13:00:00,34.9,4.3,29.98,NE,35,9.0,16.0,27,0.00,,,0.00,meteohub,2013-02-25 19:00:00,
2013-02-25 13:05:00,34.5,3.9,29.98,NE,52,6.0,16.0,27,0.00,,,0.00,meteohub,2013-02-25 19:05:00,
2013-02-25 13:10:00,34.5,6.3,29.98,NE,50,11.0,16.0,30,0.00,,,0.00,meteohub,2013-02-25 19:10:00,
2013-02-25 13:16:00,34.5,6.3,29.98,NE,34,8.0,13.0,30,0.00,,,0.00,meteohub,2013-02-25 19:16:00,
2013-02-25 13:21:00,34.7,6.4,29.98,North,0,8.0,13.0,30,0.00,,,0.00,meteohub,2013-02-25 19:21:00,
2013-02-25 13:26:00,34.7,6.4,29.98,NNE,25,11.0,13.0,30,0.00,,,0.00,meteohub,2013-02-25 19:26:00,
2013-02-25 13:31:00,34.7,6.4,29.98,NE,39,8.0,13.0,30,0.00,,,0.00,meteohub,2013-02-25 19:31:00,
2013-02-25 13:36:00,34.5,6.3,29.98,NE,43,3.0,15.0,30,0.00,,,0.00,meteohub,2013-02-25 19:36:00,
2013-02-25 13:41:00,34.7,6.4,29.98,NNE,27,10.0,15.0,30,0.00,,,0.00,meteohub,2013-02-25 19:41:00,
2013-02-25 13:46:00,34.7,6.4,29.98,NNE,12,5.0,15.0,30,0.00,,,0.00,meteohub,2013-02-25 19:46:00,
2013-02-25 13:51:00,34.9,6.6,29.98,NE,39,6.0,13.0,30,0.00,,,0.00,meteohub,2013-02-25 19:51:00,
2013-02-25 13:56:00,34.9,6.6,29.98,North,353,8.0,12.0,30,0.00,,,0.00,meteohub,2013-02-25 19:56:00,
2013-02-25 14:01:00,35.1,6.8,29.98,ENE,62,12.0,12.0,30,0.00,,,0.00,meteohub,2013-02-25 20:01:00,
2013-02-25 14:06:00,34.9,6.6,29.98,NE,36,5.0,13.0,30,0.00,,,0.00,meteohub,2013-02-25 20:06:00,
2013-02-25 14:12:00,34.9,6.6,29.98,NNE,19,8.0,13.0,30,0.00,,,0.00,meteohub,2013-02-25 20:12:00,
2013-02-25 14:17:00,34.9,6.6,29.98,NNE,33,6.0,13.0,30,0.00,,,0.00,meteohub,2013-02-25 20:17:00,
2013-02-25 14:22:00,34.9,6.6,29.98,North,0,11.0,13.0,30,0.00,,,0.00,meteohub,2013-02-25 20:22:00,
2013-02-25 14:27:00,35.1,6.8,29.98,NE,44,5.0,11.0,30,0.00,,,0.00,meteohub,2013-02-25 20:27:00,
2013-02-25 14:32:00,35.1,6.8,29.95,NE,37,4.0,11.0,30,0.00,,,0.00,meteohub,2013-02-25 20:32:00,
2013-02-25 14:37:00,35.4,7.0,29.95,NNE,29,8.0,11.0,30,0.00,,,0.00,meteohub,2013-02-25 20:37:00,
2013-02-25 14:42:00,35.4,7.0,29.95,NE,50,6.0,10.0,30,0.00,,,0.00,meteohub,2013-02-25 20:42:00,
2013-02-25 14:47:00,35.4,7.0,29.95,NE,51,7.0,13.0,30,0.00,,,0.00,meteohub,2013-02-25 20:47:00,
2013-02-25 14:52:00,35.4,7.0,29.95,NE,44,9.0,13.0,30,0.00,,,0.00,meteohub,2013-02-25 20:52:00,
2013-02-25 14:57:00,35.2,7.0,29.95,NNE,15,4.0,14.0,30,0.00,,,0.00,meteohub,2013-02-25 20:57:00,
2013-02-25 15:02:00,35.2,7.0,29.95,NE,39,6.0,15.0,30,0.00,,,0.00,meteohub,2013-02-25 21:02:00,
2013-02-25 15:07:00,35.2,7.0,29.95,NNE,12,6.0,15.0,30,0.00,,,0.00,meteohub,2013-02-25 21:07:00,
2013-02-25 15:12:00,35.4,7.0,29.95,NNE,15,9.0,15.0,30,0.00,,,0.00,meteohub,2013-02-25 21:12:00,
2013-02-25 15:17:00,35.2,7.0,29.95,NNW,345,5.0,11.0,30,0.00,,,0.00,meteohub,2013-02-25 21:17:00,
2013-02-25 15:22:00,35.2,7.0,29.95,NNE,30,6.0,11.0,30,0.00,,,0.00,meteohub,2013-02-25 21:22:00,
2013-02-25 15:27:00,35.1,6.8,29.95,NE,40,6.0,11.0,30,0.00,,,0.00,meteohub,2013-02-25 21:27:00,
2013-02-25 15:32:00,35.2,7.0,29.95,NNE,23,6.0,10.0,30,0.00,,,0.00,meteohub,2013-02-25 21:32:00,
2013-02-25 15:37:00,35.1,6.8,29.95,NNE,16,8.0,13.0,30,0.00,,,0.00,meteohub,2013-02-25 21:37:00,
2013-02-25 15:42:00,34.9,6.6,29.95,North,2,5.0,13.0,30,0.00,,,0.00,meteohub,2013-02-25 21:42:00,
2013-02-25 15:47:00,34.9,6.6,29.95,North,10,6.0,13.0,30,0.00,,,0.00,meteohub,2013-02-25 21:47:00,
2013-02-25 15:52:00,34.7,6.4,29.95,NNE,24,4.0,13.0,30,0.00,,,0.00,meteohub,2013-02-25 21:52:00,
2013-02-25 15:57:00,34.7,6.4,29.95,North,0,5.0,11.0,30,0.00,,,0.00,meteohub,2013-02-25 21:57:00,
2013-02-25 16:02:00,34.9,6.6,29.95,NNE,21,6.0,11.0,30,0.00,,,0.00,meteohub,2013-02-25 22:02:00,
2013-02-25 16:07:00,34.7,6.4,29.95,NNE,12,5.0,11.0,30,0.00,,,0.00,meteohub,2013-02-25 22:07:00,
2013-02-25 16:12:00,34.7,6.4,29.95,NNE,16,8.0,11.0,30,0.00,,,0.00,meteohub,2013-02-25 22:12:00,
2013-02-25 16:17:00,34.5,6.3,29.95,North,3,8.0,11.0,30,0.00,,,0.00,meteohub,2013-02-25 22:17:00,
2013-02-25 16:22:00,34.5,6.3,29.95,NE,42,6.0,11.0,30,0.00,,,0.00,meteohub,2013-02-25 22:22:00,
2013-02-25 16:27:00,34.5,6.3,29.95,North,8,4.0,11.0,30,0.00,,,0.00,meteohub,2013-02-25 22:27:00,
2013-02-25 16:32:00,34.5,6.3,29.95,NNE,14,5.0,11.0,30,0.00,,,0.00,meteohub,2013-02-25 22:32:00,
2013-02-25 16:37:00,34.3,6.1,29.95,NNE,20,5.0,11.0,30,0.00,,,0.00,meteohub,2013-02-25 22:37:00,
2013-02-25 16:42:00,34.3,6.1,29.95,North,357,6.0,11.0,30,0.00,,,0.00,meteohub,2013-02-25 22:42:00,
2013-02-25 16:47:00,34.3,6.1,29.95,NNE,14,6.0,12.0,30,0.00,,,0.00,meteohub,2013-02-25 22:47:00,
2013-02-25 16:52:00,34.2,5.9,29.95,NE,42,5.0,12.0,30,0.00,,,0.00,meteohub,2013-02-25 22:52:00,
2013-02-25 16:57:00,34.3,6.8,29.95,NE,34,5.0,11.0,31,0.00,,,0.00,meteohub,2013-02-25 22:57:00,
2013-02-25 17:02:00,34.2,6.6,29.95,North,0,8.0,9.0,31,0.00,,,0.00,meteohub,2013-02-25 23:02:00,
2013-02-25 17:07:00,34.2,6.6,29.95,North,3,8.0,10.0,31,0.00,,,0.00,meteohub,2013-02-25 23:07:00,
2013-02-25 17:12:00,34.2,6.6,29.95,NE,37,4.0,10.0,31,0.00,,,0.00,meteohub,2013-02-25 23:12:00,
2013-02-25 17:17:00,34.2,6.6,29.95,NE,39,5.0,10.0,31,0.00,,,0.00,meteohub,2013-02-25 23:17:00,
2013-02-25 17:22:00,34.2,6.6,29.95,NNE,18,3.0,10.0,31,0.00,,,0.00,meteohub,2013-02-25 23:22:00,
2013-02-25 17:27:00,34.2,6.6,29.95,NE,42,5.0,7.0,31,0.00,,,0.00,meteohub,2013-02-25 23:27:00,
2013-02-25 17:32:00,34.0,6.4,29.92,NNE,31,4.0,12.0,31,0.00,,,0.00,meteohub,2013-02-25 23:32:00,
2013-02-25 17:37:00,33.8,6.4,29.92,North,8,6.0,12.0,31,0.00,,,0.00,meteohub,2013-02-25 23:37:00,
2013-02-25 17:42:00,33.8,6.4,29.92,NNE,25,8.0,12.0,31,0.00,,,0.00,meteohub,2013-02-25 23:42:00,
2013-02-25 17:47:00,33.6,6.3,29.92,NNE,26,7.0,9.0,31,0.00,,,0.00,meteohub,2013-02-25 23:47:00,
2013-02-25 17:52:00,33.6,6.3,29.92,NE,47,8.0,11.0,31,0.00,,,0.00,meteohub,2013-02-25 23:52:00,
2013-02-25 17:57:00,33.4,6.1,29.92,NNW,334,6.0,11.0,31,0.00,,,0.00,meteohub,2013-02-25 23:57:00,
2013-02-25 18:02:00,33.3,5.9,29.92,North,2,6.0,10.0,31,0.00,,,0.00,meteohub,2013-02-26 00:02:00,
2013-02-25 18:07:00,33.3,5.9,29.92,ENE,64,8.0,10.0,31,0.00,,,0.00,meteohub,2013-02-26 00:07:00,
2013-02-25 18:12:00,33.1,5.7,29.92,North,357,6.0,10.0,31,0.00,,,0.00,meteohub,2013-02-26 00:12:00,
2013-02-25 18:17:00,33.1,5.7,29.92,NNE,30,4.0,10.0,31,0.00,,,0.00,meteohub,2013-02-26 00:17:00,
2013-02-25 18:22:00,32.9,5.5,29.92,NNE,22,7.0,11.0,31,0.00,,,0.00,meteohub,2013-02-26 00:22:00,
2013-02-25 18:27:00,32.9,5.5,29.92,NNE,33,10.0,11.0,31,0.00,,,0.00,meteohub,2013-02-26 00:27:00,
2013-02-25 18:32:00,32.7,6.1,29.92,NE,43,8.0,11.0,32,0.00,,,0.00,meteohub,2013-02-26 00:32:00,
2013-02-25 18:37:00,32.7,6.1,29.92,NNE,14,6.0,14.0,32,0.00,,,0.00,meteohub,2013-02-26 00:37:00,
2013-02-25 18:42:00,32.5,5.9,29.92,North,357,8.0,14.0,32,0.00,,,0.00,meteohub,2013-02-26 00:42:00,
2013-02-25 18:47:00,32.5,5.9,29.92,North,8,10.0,14.0,32,0.00,,,0.00,meteohub,2013-02-26 00:47:00,
2013-02-25 18:52:00,32.5,5.9,29.92,North,357,10.0,11.0,32,0.00,,,0.00,meteohub,2013-02-26 00:52:00,
2013-02-25 18:57:00,32.5,5.9,29.92,North,3,6.0,11.0,32,0.00,,,0.00,meteohub,2013-02-26 00:57:00,
2013-02-25 19:02:00,32.4,6.4,29.92,North,357,8.0,11.0,33,0.00,,,0.00,meteohub,2013-02-26 01:02:00,
2013-02-25 19:07:00,32.2,6.3,29.92,NNW,342,6.0,11.0,33,0.00,,,0.00,meteohub,2013-02-26 01:07:00,
2013-02-25 19:12:00,32.2,6.3,29.92,North,0,6.0,12.0,33,0.00,,,0.00,meteohub,2013-02-26 01:12:00,
2013-02-25 19:17:00,31.8,5.9,29.92,NNE,27,8.0,12.0,33,0.00,,,0.00,meteohub,2013-02-26 01:17:00,
2013-02-25 19:22:00,31.6,6.4,29.92,North,3,8.0,12.0,34,0.00,,,0.00,meteohub,2013-02-26 01:22:00,
2013-02-25 19:27:00,31.3,6.1,29.92,NE,52,5.0,11.0,34,0.00,,,0.00,meteohub,2013-02-26 01:27:00,
2013-02-25 19:32:00,31.1,6.1,29.92,NNE,31,4.0,11.0,34,0.00,,,0.00,meteohub,2013-02-26 01:32:00,
2013-02-25 19:37:00,31.1,6.1,29.92,NE,40,8.0,10.0,34,0.00,,,0.00,meteohub,2013-02-26 01:37:00,
2013-02-25 19:42:00,30.9,5.9,29.92,NE,42,8.0,11.0,34,0.00,,,0.00,meteohub,2013-02-26 01:42:00,
2013-02-25 19:47:00,30.7,6.3,29.92,North,2,8.0,11.0,35,0.00,,,0.00,meteohub,2013-02-26 01:47:00,
2013-02-25 19:52:00,30.6,6.1,29.92,NNE,12,9.0,11.0,35,0.00,,,0.00,meteohub,2013-02-26 01:52:00,
2013-02-25 19:57:00,30.4,6.6,29.92,NNE,28,3.0,10.0,36,0.00,,,0.00,meteohub,2013-02-26 01:57:00,
2013-02-25 20:02:00,30.2,6.4,29.89,North,357,8.0,11.0,36,0.00,,,0.00,meteohub,2013-02-26 02:02:00,
2013-02-25 20:07:00,30.0,6.3,29.89,NNE,19,4.0,11.0,36,0.00,,,0.00,meteohub,2013-02-26 02:07:00,
2013-02-25 20:12:00,30.0,7.0,29.89,North,2,6.0,10.0,37,0.00,,,0.00,meteohub,2013-02-26 02:12:00,
2013-02-25 20:17:00,29.8,6.8,29.89,NNE,33,3.0,10.0,37,0.00,,,0.00,meteohub,2013-02-26 02:17:00,
2013-02-25 20:22:00,29.7,6.6,29.89,NNE,33,4.0,9.0,37,0.00,,,0.00,meteohub,2013-02-26 02:22:00,
2013-02-25 20:27:00,29.7,7.2,29.89,NNE,19,5.0,9.0,38,0.00,,,0.00,meteohub,2013-02-26 02:27:00,
2013-02-25 20:32:00,29.5,7.0,29.89,NE,41,5.0,9.0,38,0.00,,,0.00,meteohub,2013-02-26 02:32:00,
2013-02-25 20:37:00,29.5,7.5,29.89,North,11,4.0,11.0,39,0.00,,,0.00,meteohub,2013-02-26 02:37:00,
2013-02-25 20:42:00,29.3,7.3,29.89,NNE,24,6.0,11.0,39,0.00,,,0.00,meteohub,2013-02-26 02:42:00,
2013-02-25 20:47:00,29.1,7.9,29.89,NNE,23,6.0,11.0,40,0.00,,,0.00,meteohub,2013-02-26 02:47:00,
2013-02-25 20:52:00,29.1,8.4,29.89,NE,34,4.0,10.0,41,0.00,,,0.00,meteohub,2013-02-26 02:52:00,
2013-02-25 20:57:00,29.1,8.4,29.89,NNE,21,9.0,10.0,41,0.00,,,0.00,meteohub,2013-02-26 02:57:00,
2013-02-25 21:02:00,28.9,8.2,29.86,NE,54,9.0,13.0,41,0.00,,,0.00,meteohub,2013-02-26 03:02:00,
2013-02-25 21:07:00,28.9,8.2,29.86,NE,35,8.0,13.0,41,0.00,,,0.00,meteohub,2013-02-26 03:07:00,
2013-02-25 21:12:00,28.8,8.1,29.86,North,9,9.0,13.0,41,0.00,,,0.00,meteohub,2013-02-26 03:12:00,
2013-02-25 21:17:00,28.8,8.1,29.89,North,1,9.0,11.0,41,0.00,,,0.00,meteohub,2013-02-26 03:17:00,
2013-02-25 21:22:00,28.6,8.4,29.89,ENE,69,5.0,11.0,42,0.00,,,0.00,meteohub,2013-02-26 03:22:00,
2013-02-25 21:27:00,28.6,8.4,29.89,NE,34,5.0,11.0,42,0.00,,,0.00,meteohub,2013-02-26 03:27:00,
2013-02-25 21:32:00,28.6,8.4,29.89,NE,35,8.0,11.0,42,0.00,,,0.00,meteohub,2013-02-26 03:32:00,
2013-02-25 21:37:00,28.4,8.2,29.89,NE,39,9.0,16.0,42,0.00,,,0.00,meteohub,2013-02-26 03:37:00,
2013-02-25 21:42:00,28.4,8.2,29.89,ENE,66,5.0,16.0,42,0.00,,,0.00,meteohub,2013-02-26 03:42:00,
2013-02-25 21:47:00,28.4,8.2,29.89,NE,38,8.0,16.0,42,0.00,,,0.00,meteohub,2013-02-26 03:47:00,
2013-02-25 21:52:00,28.4,8.8,29.89,NNE,30,9.0,12.0,43,0.00,,,0.00,meteohub,2013-02-26 03:52:00,
2013-02-25 21:57:00,28.4,8.8,29.89,NNE,33,4.0,12.0,43,0.00,,,0.00,meteohub,2013-02-26 03:57:00,
2013-02-25 22:02:00,28.4,8.8,29.89,NNE,32,8.0,12.0,43,0.00,,,0.00,meteohub,2013-02-26 04:02:00,
2013-02-25 22:07:00,28.6,8.4,29.89,NE,41,8.0,10.0,42,0.00,,,0.00,meteohub,2013-02-26 04:07:00,
2013-02-25 22:12:00,28.6,8.4,29.89,NNE,31,6.0,10.0,42,0.00,,,0.00,meteohub,2013-02-26 04:12:00,
2013-02-25 22:18:00,28.6,8.4,29.89,NE,54,6.0,13.0,42,0.00,,,0.00,meteohub,2013-02-26 04:18:00,
2013-02-25 22:23:00,28.4,8.8,29.89,NE,41,6.0,13.0,43,0.00,,,0.00,meteohub,2013-02-26 04:23:00,
2013-02-25 22:28:00,28.4,8.8,29.89,NE,45,6.0,13.0,43,0.00,,,0.00,meteohub,2013-02-26 04:28:00,
2013-02-25 22:33:00,28.4,8.8,29.92,NE,49,6.0,13.0,43,0.00,,,0.00,meteohub,2013-02-26 04:33:00,
2013-02-25 22:38:00,28.4,8.8,29.92,NNE,20,6.0,11.0,43,0.00,,,0.00,meteohub,2013-02-26 04:38:00,
2013-02-25 22:43:00,28.4,8.8,29.92,NE,43,8.0,10.0,43,0.00,,,0.00,meteohub,2013-02-26 04:43:00,
2013-02-25 22:48:00,28.4,8.8,29.92,North,6,6.0,10.0,43,0.00,,,0.00,meteohub,2013-02-26 04:48:00,
2013-02-25 22:53:00,28.4,8.8,29.92,NE,44,6.0,10.0,43,0.00,,,0.00,meteohub,2013-02-26 04:53:00,
2013-02-25 22:58:00,28.4,8.8,29.92,NNE,32,6.0,10.0,43,0.00,,,0.00,meteohub,2013-02-26 04:58:00,
2013-02-25 23:00:00,28.4,8.8,29.92,NNE,17,3.0,11.0,43,0.00,,,0.00,meteohub,2013-02-26 05:00:00,
2013-02-25 23:01:00,28.4,8.8,29.92,NNE,15,8.0,11.0,43,0.00,,,0.00,meteohub,2013-02-26 05:01:00,
2013-02-25 23:07:00,28.4,8.8,29.92,NE,49,5.0,11.0,43,0.00,,,0.00,meteohub,2013-02-26 05:07:00,
2013-02-25 23:12:00,28.4,8.8,29.92,NE,42,5.0,11.0,43,0.00,,,0.00,meteohub,2013-02-26 05:12:00,
2013-02-25 23:17:00,28.4,8.8,29.92,NNE,13,4.0,9.0,43,0.00,,,0.00,meteohub,2013-02-26 05:17:00,
2013-02-25 23:22:00,28.4,8.8,29.92,North,5,4.0,9.0,43,0.00,,,0.00,meteohub,2013-02-26 05:22:00,
2013-02-25 23:27:00,28.4,8.8,29.92,NE,40,8.0,9.0,43,0.00,,,0.00,meteohub,2013-02-26 05:27:00,
2013-02-25 23:32:00,28.4,8.8,29.89,NE,45,5.0,11.0,43,0.00,,,0.00,meteohub,2013-02-26 05:32:00,
2013-02-25 23:37:00,28.4,8.8,29.89,NNE,20,4.0,11.0,43,0.00,,,0.00,meteohub,2013-02-26 05:37:00,
2013-02-25 23:42:00,28.4,8.8,29.89,North,10,6.0,11.0,43,0.00,,,0.00,meteohub,2013-02-26 05:42:00,
2013-02-25 23:47:00,28.2,8.6,29.89,NE,38,4.0,11.0,43,0.00,,,0.00,meteohub,2013-02-26 05:47:00,
2013-02-25 23:52:00,28.2,8.6,29.89,NE,49,4.0,11.0,43,0.00,,,0.00,meteohub,2013-02-26 05:52:00,
2013-02-25 23:57:00,28.2,8.6,29.89,NNE,19,5.0,8.0,43,0.00,,,0.00,meteohub,2013-02-26 05:57:00,